ARIANE 44LP DEB, 33541

Orbit data source: Space-Track

ARIANE 44LP DEB, 33541 is space debris in HEO originally from a launch on Sun, 11 Dec 1988 UTC launched from the French Guiana (FRGUI). Debris objects in space refer to the collection of defunct objects orbiting the Earth. Examples of debris include non-operational satellites, rocket bodies, and fragments generated from explosions, collisions, or faulty payload assembly.

Loading next visibility...
Identifier
33541, 1988-109Q
Orbit
HEO
Country
Flag of FRFR
Related business
Manufacturer
Unknown
Mission
Spacecraft
Bus & Motor
Unknown
Mass
Unknown
Launch date (UTC)
1988-12-11 (38 years ago)
Launch vehicle
Unknown
Launch site
French Guiana (FRGUI)
Object type
Payload
Rocket body
Debris
Shape & HBR
Unknown shape, 0.3 m
Radar Cross Section
Medium (>0.1 m² and <1 m²)

Expand to show TLE details & history
Last TLE update: 4 weeks ago

TLE from 4 weeks ago
0 ARIANE 44LP DEB
1 33541U 88109Q   26147.48839556 -.00000161  00000-0  18382-2 0  9993
2 33541   7.1312 290.9459 7104338 318.3319 337.8757  2.23924403191857
Epoch: 2026-05-27T11:43Z
TLE epoch observation values (Epoch: 2026-05-27T11:43:17.376Z)
Latitude
-4.01921°
Longitude
83.80835°
Altitude
8,417.702 km
Speed
6.142 km/s
True Right ascension
09h 38m 42s
True Declination
-4° 00' 28"
Sunlit
Object was in daylight at epoch
Visualization orbit readout
Latitude
Unknown
Longitude
Unknown
Altitude
Unknown
Speed
Unknown
Apparent Right ascension
Unknown
Apparent Declination
Unknown
Sunlit
N/A
Visualization observer readout
Local Sidereal Time
02:17:17
Azimuth
Unknown
Elevation
Unknown
Doppler factor
Unknown
Orbital elements
Apogee altitude
35,842.888 km
Perigee altitude
769.63 km
Semi-major axis
24,684.396 km
Eccentricity
0.71043
Inclination
7.1312°
RAAN
290.9459°
Arg. of periapsis
318.3319°
True anomaly
255.72013°
Mean anomaly
337.8757°
Eccentric anomaly
304.21582°
Mean motion
0.55964 °/min
Orbital period
643.27 mins
BSTAR
0.0018382
Loading maneuver chart data...
Computing Atmospheric mass density...
Loading historical data...
Loading historical data...
Loading historical data...
Loading historical data...
Loading historical data...
Loading historical data...
Loading historical data...

Documentation

Showing up to 5 results
|